Humidity-temperature Sensor

Selected Measurement Type: Air Temperature

 
Air Temperature [°C]     6 entries per hour
Showing data from 2/23/2024 (19:00:00 Z) to 2/16/2024 (00:01:00 Z)
Previous Next [ Day | 3-Days | 7-Days ]
First Last
Prev [ Day | 3-Days | 7-Days ] Next
First Last

Start Time:     :
End Time:     :     
Time (in GMT) :00 :50 :40 :30 :20 :10
Previous Next [ Day | 3-Days | 7-Days ]
First Last
Prev [ Day | 3-Days | 7-Days ] Next
First Last


123 => good data
MM => data is determined as missing
-- => data not received/configured
Back to Top Back to Top
2/23/2024 19:00 to 18:10 28.54 28.02 27.75 27.44 28.53 28.62
2/23/2024 18:00 to 17:10 28.57 28.69 28.66 28.69 28.49 28.24
2/23/2024 17:00 to 16:10 28.74 28.85 28.75 28.59 28.53 28.53
2/23/2024 16:00 to 15:10 28.53 28.57 28.40 28.40 28.09 28.60
2/23/2024 15:00 to 14:10 28.61 28.66 28.71 28.64 28.64 28.59
2/23/2024 14:00 to 13:10 28.65 28.65 28.63 28.68 28.64 28.58
2/23/2024 13:00 to 12:10 28.57 28.69 28.67 28.70 28.51 28.83
2/23/2024 12:00 to 11:10 28.95 28.91 28.82 28.78 28.69 28.81
2/23/2024 11:00 to 10:10 28.77 28.82 28.99 29.00 28.99 29.02
2/23/2024 10:00 to 9:10 29.03 29.21 29.09 29.16 29.08 29.04
2/23/2024 09:00 to 8:10 29.05 29.25 29.23 29.09 29.24 29.20
2/23/2024 08:00 to 7:10 29.11 29.17 29.31 29.10 29.24 29.19
2/23/2024 07:00 to 6:10 29.31 29.21 29.35 29.26 29.29 29.36
2/23/2024 06:00 to 5:10 29.37 29.24 29.30 29.39 29.21 29.13
2/23/2024 05:00 to 4:10 29.25 29.43 29.22 29.21 29.27 29.27
2/23/2024 04:00 to 3:10 29.37 29.06 29.31 29.30 29.42 29.28
2/23/2024 03:00 to 2:10 29.23 28.98 29.04 29.28 29.56 29.47
2/23/2024 02:00 to 1:10 29.60 29.53 29.38 29.54 29.80 29.55
2/23/2024 01:00 to 0:10 29.57 29.44 29.62 29.52 29.47 29.38
2/23/2024 00:00 to 23:10 29.40 29.41 29.37 29.31 29.18 29.19
2/22/2024 23:00 to 22:10 29.34 29.23 29.12 29.20 29.23 29.25
2/22/2024 22:00 to 21:10 29.43 29.27 29.44 29.29 29.46 29.41
2/22/2024 21:00 to 20:10 29.33 29.23 29.21 29.25 29.22 29.22
2/22/2024 20:00 to 19:10 29.24 29.35 29.45 29.40 29.36 29.24
2/22/2024 19:00 to 18:10 29.26 29.34 29.38 29.31 29.27 29.32
2/22/2024 18:00 to 17:10 29.36 29.39 28.97 28.80 28.83 28.70
2/22/2024 17:00 to 16:10 28.69 28.98 28.91 28.80 28.83 28.94
2/22/2024 16:00 to 15:10 28.76 28.91 28.93 29.00 28.89 28.97
2/22/2024 15:00 to 14:10 29.13 28.83 29.00 28.87 28.94 28.96
2/22/2024 14:00 to 13:10 28.83 28.93 28.79 29.05 28.66 28.76
2/22/2024 13:00 to 12:10 28.75 28.91 28.80 28.80 28.82 28.88
2/22/2024 12:00 to 11:10 29.02 28.91 28.84 29.09 28.89 28.97
2/22/2024 11:00 to 10:10 28.84 29.02 28.82 29.13 29.15 29.11
2/22/2024 10:00 to 9:10 28.99 29.20 28.92 29.05 29.18 28.96
2/22/2024 09:00 to 8:10 29.12 29.07 29.09 29.02 28.98 29.13
2/22/2024 08:00 to 7:10 29.09 29.05 29.03 29.13 29.05 29.16
2/22/2024 07:00 to 6:10 29.24 29.10 29.24 29.07 29.07 29.11
2/22/2024 06:00 to 5:10 29.31 29.25 29.28 29.23 29.50 29.46
2/22/2024 05:00 to 4:10 29.36 29.36 29.23 29.42 29.62 29.74
2/22/2024 04:00 to 3:10 29.71 29.64 29.72 29.75 29.74 29.76
2/22/2024 03:00 to 2:10 29.69 29.75 29.52 29.58 29.53 29.51
2/22/2024 02:00 to 1:10 29.56 29.70 29.48 29.51 29.55 29.62
2/22/2024 01:00 to 0:10 29.51 29.54 29.40 29.25 29.25 29.33
2/22/2024 00:00 to 23:10 28.99 29.21 29.18 29.24 29.08 29.12
2/21/2024 23:00 to 22:10 29.02 29.05 29.34 29.02 29.14 29.06
2/21/2024 22:00 to 21:10 29.15 29.03 29.07 29.34 29.14 29.20
2/21/2024 21:00 to 20:10 29.09 29.37 29.15 29.14 29.05 29.07
2/21/2024 20:00 to 19:10 28.95 29.14 29.16 29.04 29.15 29.03
2/21/2024 19:00 to 18:10 29.25 29.11 29.21 29.10 29.20 29.08
2/21/2024 18:00 to 17:10 29.14 29.11 29.00 29.02 29.14 28.96
2/21/2024 17:00 to 16:10 29.07 28.87 28.84 28.86 28.80 28.88
2/21/2024 16:00 to 15:10 28.88 28.76 28.83 28.67 28.99 28.72
2/21/2024 15:00 to 14:10 28.88 28.77 28.80 28.73 28.88 28.87
2/21/2024 14:00 to 13:10 28.75 28.90 29.02 28.80 28.79 28.78
2/21/2024 13:00 to 12:10 28.88 29.01 28.77 29.00 28.93 28.98
2/21/2024 12:00 to 11:10 29.01 28.76 29.17 29.17 28.97 29.16
2/21/2024 11:00 to 10:10 29.25 29.05 29.02 29.02 29.15 29.09
2/21/2024 10:00 to 9:10 29.22 29.21 29.22 29.03 28.70 29.09
2/21/2024 09:00 to 8:10 29.13 29.23 29.14 29.26 29.27 29.17
2/21/2024 08:00 to 7:10 29.17 29.25 29.20 29.17 29.21 29.20
2/21/2024 07:00 to 6:10 29.31 29.43 29.24 29.22 29.15 29.24
2/21/2024 06:00 to 5:10 29.15 29.42 29.26 29.40 29.26 29.35
2/21/2024 05:00 to 4:10 29.24 29.32 29.23 29.29 29.45 29.50
2/21/2024 04:00 to 3:10 29.33 29.44 29.77 29.75 29.55 29.70
2/21/2024 03:00 to 2:10 29.70 29.62 29.59 29.54 29.46 29.53
2/21/2024 02:00 to 1:10 29.52 29.46 29.60 29.40 29.40 29.49
2/21/2024 01:00 to 0:10 29.49 29.46 29.46 29.38 29.26 29.31
2/21/2024 00:00 to 23:10 29.30 29.40 29.46 29.29 29.28 29.41
2/20/2024 23:00 to 22:10 29.40 29.36 29.20 29.39 29.28 29.18
2/20/2024 22:00 to 21:10 29.31 29.29 29.19 29.14 29.27 29.41
2/20/2024 21:00 to 20:10 29.38 29.26 29.18 29.32 29.21 29.36
2/20/2024 20:00 to 19:10 29.37 28.75 29.24 29.30 29.40 29.32
2/20/2024 19:00 to 18:10 29.31 29.23 29.34 29.33 29.39 29.28
2/20/2024 18:00 to 17:10 29.20 29.25 29.06 29.12 29.16 28.96
2/20/2024 17:00 to 16:10 29.13 28.84 29.10 28.87 28.93 28.93
2/20/2024 16:00 to 15:10 28.91 29.24 28.95 29.08 28.96 28.98
2/20/2024 15:00 to 14:10 29.04 28.98 28.76 28.82 28.86 28.89
2/20/2024 14:00 to 13:10 28.86 28.90 28.73 29.00 29.02 28.93
2/20/2024 13:00 to 12:10 29.02 28.94 28.98 28.96 29.06 29.02
2/20/2024 12:00 to 11:10 28.99 29.05 29.09 28.98 29.18 29.08
2/20/2024 11:00 to 10:10 28.99 29.29 29.10 29.08 29.13 29.07
2/20/2024 10:00 to 9:10 29.15 29.19 29.13 29.21 29.21 29.17
2/20/2024 09:00 to 8:10 29.28 29.19 29.16 29.20 29.35 29.35
2/20/2024 08:00 to 7:10 29.25 29.31 29.08 29.32 29.22 29.19
2/20/2024 07:00 to 6:10 29.14 29.30 29.28 29.06 29.14 29.25
2/20/2024 06:00 to 5:10 29.21 29.14 29.06 29.09 29.04 29.19
2/20/2024 05:00 to 4:10 29.22 29.25 29.21 29.33 29.34 29.61
2/20/2024 04:00 to 3:10 29.61 29.53 29.63 29.64 29.50 29.59
2/20/2024 03:00 to 2:10 29.50 29.71 29.62 29.74 29.57 29.53
2/20/2024 02:00 to 1:10 29.59 29.22 29.51 29.55 29.43 29.41
2/20/2024 01:00 to 0:10 29.40 29.31 29.35 29.19 29.32 29.14
2/20/2024 00:00 to 23:10 29.23 29.46 29.34 29.05 29.14 29.19
2/19/2024 23:00 to 22:10 29.06 29.28 29.31 29.24 29.36 29.13
2/19/2024 22:00 to 21:10 29.28 29.16 29.16 29.14 29.23 29.25
2/19/2024 21:00 to 20:10 29.11 29.25 29.12 29.14 29.24 29.10
2/19/2024 20:00 to 19:10 29.20 29.05 29.08 29.20 29.07 29.06
2/19/2024 19:00 to 18:10 29.23 29.07 29.10 29.02 29.18 29.06
2/19/2024 18:00 to 17:10 29.21 29.06 29.15 29.19 29.07 28.86
2/19/2024 17:00 to 16:10 28.88 29.21 28.91 28.91 28.95 29.11
2/19/2024 16:00 to 15:10 28.98 28.94 28.91 28.83 28.82 28.81
2/19/2024 15:00 to 14:10 28.79 28.82 28.97 28.78 28.92 28.87
2/19/2024 14:00 to 13:10 28.87 28.78 28.74 28.68 28.93 28.78
2/19/2024 13:00 to 12:10 28.88 29.02 28.87 28.97 28.92 29.05
2/19/2024 12:00 to 11:10 28.98 28.95 28.98 29.04 28.85 28.94
2/19/2024 11:00 to 10:10 28.94 28.83 28.96 28.98 29.16 29.07
2/19/2024 10:00 to 9:10 29.04 29.16 29.08 29.06 28.94 29.10
2/19/2024 09:00 to 8:10 28.94 29.04 29.16 29.25 29.06 29.07
2/19/2024 08:00 to 7:10 29.05 29.16 29.08 29.31 29.19 29.10
2/19/2024 07:00 to 6:10 29.18 29.14 29.15 29.22 29.16 29.29
2/19/2024 06:00 to 5:10 29.07 29.07 29.18 29.05 29.34 29.13
2/19/2024 05:00 to 4:10 29.32 29.28 29.25 29.10 29.44 29.48
2/19/2024 04:00 to 3:10 29.55 29.25 29.24 29.67 29.93 29.64
2/19/2024 03:00 to 2:10 29.70 29.66 29.62 29.62 29.19 29.50
2/19/2024 02:00 to 1:10 29.56 29.54 29.53 29.38 29.34 29.49
2/19/2024 01:00 to 0:10 29.34 29.28 29.31 29.30 29.36 29.27
2/19/2024 00:00 to 23:10 29.33 29.35 28.97 29.29 29.30 29.36
2/18/2024 23:00 to 22:10 29.00 29.08 29.16 29.19 29.14 29.14
2/18/2024 22:00 to 21:10 29.25 29.19 29.19 29.20 29.18 29.26
2/18/2024 21:00 to 20:10 29.05 29.09 29.24 29.16 28.99 29.11
2/18/2024 20:00 to 19:10 29.32 29.31 28.93 29.07 29.16 29.22
2/18/2024 19:00 to 18:10 29.19 29.07 29.09 29.20 29.10 29.13
2/18/2024 18:00 to 17:10 29.18 29.15 29.12 29.13 29.23 29.19
2/18/2024 17:00 to 16:10 29.02 28.71 28.87 28.75 28.72 28.75
2/18/2024 16:00 to 15:10 28.90 28.71 28.74 28.57 28.82 28.81
2/18/2024 15:00 to 14:10 28.73 28.82 28.95 28.99 28.83 28.83
2/18/2024 14:00 to 13:10 28.86 28.79 28.82 28.89 28.99 28.89
2/18/2024 13:00 to 12:10 28.80 28.81 28.88 29.00 28.68 29.04
2/18/2024 12:00 to 11:10 29.02 29.03 28.99 28.85 28.84 29.11
2/18/2024 11:00 to 10:10 29.05 29.02 29.21 29.17 28.99 29.07
2/18/2024 10:00 to 9:10 29.12 29.13 29.06 29.05 29.03 29.21
2/18/2024 09:00 to 8:10 29.20 29.21 29.12 29.08 29.15 29.21
2/18/2024 08:00 to 7:10 29.21 29.02 29.12 29.28 29.18 29.13
2/18/2024 07:00 to 6:10 29.27 29.16 29.20 29.23 29.19 29.18
2/18/2024 06:00 to 5:10 29.16 29.28 29.01 29.18 29.19 29.12
2/18/2024 05:00 to 4:10 29.20 29.10 29.34 29.27 29.17 29.14
2/18/2024 04:00 to 3:10 29.23 29.69 29.86 29.72 29.69 29.68
2/18/2024 03:00 to 2:10 29.61 29.50 29.55 29.56 29.41 29.37
2/18/2024 02:00 to 1:10 29.30 29.40 29.28 29.35 29.26 29.18
2/18/2024 01:00 to 0:10 29.26 29.16 29.08 29.14 29.11 29.09
2/18/2024 00:00 to 23:10 29.14 29.03 29.17 29.18 28.92 29.25
2/17/2024 23:00 to 22:10 28.88 29.16 28.81 28.96 29.00 29.05
2/17/2024 22:00 to 21:10 28.89 28.98 29.02 28.92 28.99 28.95
2/17/2024 21:00 to 20:10 28.95 29.02 28.87 28.88 28.83 29.02
2/17/2024 20:00 to 19:10 28.87 28.88 29.10 29.00 29.06 29.04
2/17/2024 19:00 to 18:10 28.93 28.80 28.90 29.10 28.96 29.00
2/17/2024 18:00 to 17:10 29.05 29.03 28.97 29.10 28.95 28.93
2/17/2024 17:00 to 16:10 28.87 28.85 28.68 28.61 28.56 28.44
2/17/2024 16:00 to 15:10 28.53 28.61 28.61 28.71 28.54 28.73
2/17/2024 15:00 to 14:10 28.70 28.49 28.56 28.65 28.67 28.46
2/17/2024 14:00 to 13:10 28.67 28.68 28.77 28.52 28.62 28.58
2/17/2024 13:00 to 12:10 28.54 28.75 28.76 28.63 28.75 28.78
2/17/2024 12:00 to 11:10 28.94 28.72 28.69 28.88 28.58 28.80
2/17/2024 11:00 to 10:10 28.81 28.84 28.71 28.72 28.86 28.93
2/17/2024 10:00 to 9:10 28.85 29.00 28.94 28.83 28.79 28.89
2/17/2024 09:00 to 8:10 28.95 28.86 28.93 28.87 28.94 28.98
2/17/2024 08:00 to 7:10 28.98 28.89 29.03 28.96 28.99 28.96
2/17/2024 07:00 to 6:10 29.01 29.11 29.05 28.99 28.89 28.95
2/17/2024 06:00 to 5:10 28.97 29.10 29.04 29.00 29.12 29.07
2/17/2024 05:00 to 4:10 29.02 29.20 29.14 29.10 29.25 29.31
2/17/2024 04:00 to 3:10 29.44 29.45 29.54 29.58 29.38 29.58
2/17/2024 03:00 to 2:10 29.69 29.72 29.56 29.58 29.70 29.36
2/17/2024 02:00 to 1:10 29.51 29.56 29.46 29.35 29.33 29.28
2/17/2024 01:00 to 0:10 29.26 29.27 29.17 29.03 29.24 29.14
2/17/2024 00:00 to 23:10 29.08 29.15 29.14 29.09 29.17 28.97
2/16/2024 23:00 to 22:10 28.99 29.21 29.04 28.98 29.21 29.05
2/16/2024 22:00 to 21:10 29.06 29.14 28.97 29.19 29.13 29.24
2/16/2024 21:00 to 20:10 28.96 29.12 29.01 29.01 29.04 28.94
2/16/2024 20:00 to 19:10 28.90 29.12 29.13 29.23 29.10 29.11
2/16/2024 19:00 to 18:10 29.16 29.28 29.12 29.06 29.39 29.16
2/16/2024 18:00 to 17:10 29.16 29.10 29.59 29.49 29.37 28.96
2/16/2024 17:00 to 16:10 28.86 28.93 28.85 28.87 28.98 28.92
2/16/2024 16:00 to 15:10 28.90 28.88 28.91 28.82 28.92 28.93
2/16/2024 15:00 to 14:10 28.84 28.69 28.83 28.84 28.76 28.83
2/16/2024 14:00 to 13:10 28.73 28.88 29.02 29.07 28.80 28.75
2/16/2024 13:00 to 12:10 28.81 28.98 28.95 29.09 29.01 28.99
2/16/2024 12:00 to 11:10 28.90 28.75 28.99 28.86 28.73 28.49
2/16/2024 11:00 to 10:10 28.69 28.67 28.83 28.87 28.56 27.62
2/16/2024 10:00 to 9:10 28.49 28.35 27.80 27.58 26.85 27.08
2/16/2024 09:00 to 8:10 28.05 28.82 28.49 27.73 28.09 28.33
2/16/2024 08:00 to 7:10 28.55 28.29 28.41 29.20 29.28 29.15
2/16/2024 07:00 to 6:10 29.22 29.00 29.09 29.19 29.19 29.10
2/16/2024 06:00 to 5:10 29.13 29.06 29.04 29.05 29.31 29.07
2/16/2024 05:00 to 4:10 29.31 29.37 29.21 29.31 29.42 29.64
2/16/2024 04:00 to 3:10 29.70 29.68 29.83 29.64 29.66 29.79
2/16/2024 03:00 to 2:10 29.63 29.54 29.59 29.74 29.59 29.57
2/16/2024 02:00 to 1:10 29.63 29.48 29.64 29.54 29.60 29.59
2/16/2024 01:00 to 0:10 29.51 29.50 29.37 29.52 29.27 29.49